Date,TemperatureHighF,TemperatureAvgF,TemperatureLowF,DewpointHighF,DewpointAvgF,DewpointLowF,HumidityHigh,HumidityAvg,HumidityLow,PressureMaxIn,PressureMinIn,WindSpeedMaxMPH,WindSpeedAvgMPH,GustSpeedMaxMPH,PrecipitationSumIn
2013-1-1,37.0,30.1,17.0,28.0,18.1,4.0,83,62,45,29.92,29.66,14,6,0,0.00
2013-1-2,28.0,18.0,8.0,18.0,5.7,-7.0,67,58,46,30.11,29.88,16,6,0,0.00
2013-1-3,25.0,13.0,3.0,4.0,-2.4,-9.0,62,50,35,30.14,29.97,10,4,0,0.00
2013-1-4,37.0,27.8,15.0,26.0,19.1,2.0,84,70,55,29.97,29.75,16,7,0,0.00
2013-1-5,40.0,33.4,24.0,27.0,20.5,14.0,76,60,42,30.25,29.79,15,5,0,0.00
2013-1-6,43.0,32.3,23.0,31.0,24.9,15.0,89,74,62,30.21,29.90,11,4,0,0.00
2013-1-7,40.0,32.8,26.0,31.0,23.8,13.0,93,71,48,30.38,29.93,10,4,0,0.00
2013-1-8,45.0,35.1,26.0,30.0,27.4,23.0,100,75,54,30.35,30.21,18,7,0,0.00
2013-1-9,43.0,35.4,26.0,40.0,28.6,22.0,88,76,60,30.39,29.94,18,5,0,0.00
2013-1-10,46.0,40.3,31.0,34.0,27.3,23.0,73,60,49,30.52,29.96,25,6,0,0.00
2013-1-11,42.0,34.9,27.0,38.0,29.2,22.0,100,80,69,30.50,30.22,8,3,0,0.16
2013-1-14,61.0,50.8,40.0,57.0,40.6,30.0,100,69,57,30.22,29.93,11,4,0,0.00
2013-1-15,44.0,37.4,32.0,31.0,27.7,24.0,82,68,56,30.29,30.20,6,2,0,0.00
2013-1-16,33.0,31.9,31.0,33.0,28.4,24.0,100,87,73,30.24,29.81,6,2,0,0.00
2013-1-17,43.0,35.0,29.0,38.0,27.4,12.0,100,75,49,30.09,29.80,12,5,0,2.94
2013-1-18,28.0,20.9,15.0,11.0,0.1,-8.0,57,40,29,30.42,30.03,18,5,0,5.52
2013-1-19,45.0,34.3,19.0,31.0,21.8,6.0,75,60,50,30.37,29.86,26,9,0,5.52
2013-1-20,51.0,39.9,28.0,35.0,26.6,10.0,83,61,32,29.88,29.48,23,10,0,5.29
2013-1-21,31.0,25.6,19.0,20.0,8.6,0.0,87,50,37,30.05,29.78,13,5,0,0.00
2013-1-22,28.0,21.1,12.0,20.0,10.6,-3.0,88,66,31,30.06,29.75,15,4,0,0.00
2013-1-23,15.0,9.8,3.0,1.0,-8.5,-14.0,60,43,29,30.14,30.04,16,5,0,0.00
2013-1-24,17.0,8.4,0.0,-9.0,-12.3,-15.0,49,38,27,30.18,30.03,40,9,0,0.05
2013-1-25,24.0,15.3,7.0,-2.0,-5.6,-10.0,51,39,27,30.26,30.06,17,6,0,0.00
2013-1-26,25.0,17.9,11.0,8.0,2.0,-8.0,77,52,28,30.20,29.99,13,4,0,0.00
2013-1-27,29.0,19.8,13.0,3.0,-1.6,-8.0,62,40,23,30.45,30.19,14,6,0,0.00
2013-1-28,33.0,23.3,15.0,22.0,8.2,-6.0,92,55,27,30.45,30.03,8,3,0,0.00
2013-1-29,40.0,30.4,24.0,33.0,27.5,22.0,96,89,76,30.17,30.03,6,2,0,0.48
2013-1-30,34.0,34.0,34.0,34.0,32.9,32.0,100,96,94,30.14,30.08,5,1,0,0.15
2013-1-31,58.0,40.4,31.0,58.0,26.2,13.0,99,57,47,29.53,28.91,30,15,0,0.16
2013-2-1,34.0,28.6,20.0,16.0,11.0,6.0,58,47,35,30.05,29.53,26,9,0,0.00
2013-2-2,32.0,24.6,16.0,13.0,8.7,5.0,66,51,39,30.22,30.03,11,5,0,0.00
2013-2-3,29.0,25.5,21.0,23.0,18.9,12.0,90,76,53,30.03,29.70,13,3,0,0.00
2013-2-4,32.0,25.2,20.0,19.0,11.4,3.0,82,57,37,29.89,29.69,16,7,0,0.00
2013-2-5,31.0,23.7,16.0,17.0,9.2,3.0,69,54,41,30.02,29.89,13,4,0,0.00
2013-2-6,39.0,29.9,23.0,30.0,19.6,2.0,90,67,43,30.29,29.91,15,4,0,0.15
2013-2-7,29.0,22.6,15.0,4.0,-1.3,-7.0,48,35,21,30.51,30.28,10,4,0,0.09
2013-2-8,24.0,19.6,17.0,20.0,15.4,3.0,100,85,40,30.49,29.98,19,8,0,0.00
2013-2-9,24.0,18.8,14.0,24.0,14.2,7.0,100,82,72,30.16,29.65,18,7,0,0.00
2013-2-10,39.0,24.2,10.0,14.0,7.5,2.0,74,51,32,30.36,30.16,15,4,0,0.00
2013-2-11,36.0,27.5,22.0,36.0,16.0,2.0,100,64,39,30.33,29.67,7,3,0,0.18
2013-2-12,46.0,40.0,34.0,36.0,32.4,30.0,100,75,56,29.82,29.57,19,9,0,0.24
2013-2-13,46.0,37.2,29.0,30.0,26.3,22.0,85,66,49,29.84,29.71,14,4,0,0.00
2013-2-14,45.0,36.9,31.0,27.0,24.8,22.0,78,62,45,29.98,29.70,9,4,0,0.00
2013-2-15,51.0,39.7,29.0,37.0,30.9,23.0,94,72,54,29.98,29.87,20,7,0,0.00
2013-2-16,44.0,37.0,33.0,36.0,28.2,20.0,98,71,53,29.93,29.72,11,3,0,0.25
2013-2-17,32.0,23.1,17.0,20.0,12.1,3.0,91,64,41,29.72,29.31,42,12,0,0.22
2013-2-18,32.0,22.8,14.0,9.0,2.5,-2.0,66,42,26,30.11,29.61,34,11,0,0.26
2013-2-19,48.0,33.7,22.0,40.0,17.8,1.0,100,53,36,30.13,29.71,13,5,0,0.06
2013-2-20,37.0,33.2,27.0,37.0,21.3,16.0,99,62,48,29.73,29.52,20,9,0,0.90
2013-2-21,32.0,26.8,23.0,17.0,14.2,12.0,71,59,47,30.16,29.72,24,7,0,0.00
2013-2-22,45.0,32.0,21.0,28.0,21.6,14.0,87,67,44,30.37,30.16,16,5,0,0.00
2013-2-23,40.0,35.6,32.0,35.0,30.4,25.0,100,81,71,30.32,29.95,10,3,0,0.06
2013-2-24,34.0,34.0,34.0,34.0,34.0,34.0,99,99,99,29.95,29.95,4,4,0,0.00
2013-2-25,45.0,38.7,33.0,37.0,33.8,31.0,99,83,67,30.22,30.04,6,2,0,1.42
2013-2-26,45.0,38.5,32.0,40.0,33.9,30.0,100,84,70,30.33,30.17,11,4,0,0.00
2013-2-27,39.0,37.7,37.0,39.0,35.3,33.0,99,91,84,30.18,30.06,25,10,0,0.00
2013-2-28,50.0,44.2,36.0,41.0,34.3,23.0,100,70,36,29.61,29.51,9,3,0,0.00
2013-3-1,43.0,37.6,35.0,37.0,33.4,31.0,99,85,70,29.67,29.52,8,3,0,0.00
2013-3-2,48.0,39.0,32.0,36.0,31.4,28.0,90,75,57,29.65,29.59,10,3,0,0.00
2013-3-3,44.0,37.0,32.0,39.0,32.3,28.0,95,83,72,29.63,29.49,10,4,0,0.09
2013-3-4,41.0,34.6,30.0,29.0,26.2,23.0,80,71,58,29.71,29.55,19,7,0,0.00
2013-3-5,46.0,37.6,29.0,37.0,30.4,22.0,95,75,61,30.06,29.71,14,4,0,0.01
2013-3-6,39.0,37.7,36.0,37.0,34.3,30.0,100,88,73,30.14,30.06,32,14,0,1.07
2013-3-7,35.0,33.0,32.0,35.0,31.2,28.0,100,93,82,30.08,30.01,21,13,0,0.44
2013-3-8,43.0,40.1,32.0,34.0,26.9,23.0,98,60,48,30.15,30.01,15,8,0,0.04
2013-3-9,49.0,39.2,30.0,34.0,27.2,21.0,96,63,42,30.35,30.14,16,6,0,0.00
2013-3-10,48.0,38.5,27.0,38.0,32.6,27.0,100,80,62,30.40,30.29,9,4,0,0.00
2013-3-11,56.0,43.1,33.0,42.0,37.0,32.0,100,81,49,30.31,30.13,12,6,0,0.00
2013-3-12,52.0,49.1,42.0,52.0,48.0,41.0,100,97,78,30.14,29.85,18,6,0,0.05
2013-3-13,53.0,46.3,35.0,42.0,34.3,24.0,100,64,48,29.76,29.67,12,4,0,0.04
2013-3-14,40.0,33.1,23.0,25.0,20.3,6.0,79,60,47,29.80,29.65,18,6,0,0.00
2013-3-15,42.0,29.9,19.0,29.0,13.8,4.0,86,52,32,29.84,29.60,13,8,0,0.00
2013-3-16,41.0,34.0,26.0,29.0,18.6,13.0,85,55,35,29.88,29.62,13,4,0,0.00
2013-3-17,38.0,30.4,22.0,19.0,10.4,2.0,70,44,27,30.31,29.88,19,5,0,0.00
2013-3-18,44.0,29.3,15.0,24.0,11.2,0.0,70,47,29,30.45,30.24,10,4,0,0.00
2013-3-19,33.0,31.6,31.0,32.0,27.7,24.0,99,86,68,30.25,30.08,15,7,0,0.00
2013-3-20,41.0,35.7,29.0,35.0,26.7,21.0,99,70,60,29.79,29.67,16,6,0,0.72
2013-3-21,48.0,34.4,23.0,28.0,23.6,18.0,87,67,36,29.79,29.59,10,3,0,0.00
2013-3-22,46.0,35.7,28.0,27.0,23.3,20.0,91,63,36,29.69,29.59,11,4,0,0.00
2013-3-23,46.0,36.2,26.0,26.0,22.5,19.0,78,59,39,29.74,29.58,21,8,0,0.00
2013-3-24,52.0,40.5,30.0,33.0,26.9,22.0,77,60,38,29.79,29.71,13,3,0,0.00
2013-3-25,46.0,37.0,30.0,37.0,31.3,25.0,88,80,69,29.77,29.54,14,5,0,0.00
2013-3-26,52.0,41.4,32.0,31.0,25.8,20.0,82,56,33,29.76,29.54,13,3,0,0.00
2013-3-27,55.0,42.7,31.0,36.0,28.3,20.0,87,58,39,29.86,29.71,12,4,0,0.00
2013-3-28,52.0,43.4,36.0,40.0,36.2,32.0,100,77,55,29.99,29.86,8,1,0,0.26
2013-3-29,60.0,46.3,36.0,42.0,35.0,30.0,87,66,43,30.03,29.94,11,2,0,0.00
2013-3-30,60.0,47.4,36.0,36.0,28.3,15.0,83,52,28,30.08,29.98,8,3,0,0.00
2013-3-31,63.0,48.2,32.0,40.0,27.0,-99.9,75,46,33,30.11,29.80,19,5,0,0.01
2013-4-1,61.0,49.6,35.0,50.0,37.9,15.0,98,66,38,29.78,29.47,18,7,0,2.15
2013-4-2,43.0,35.7,29.0,20.0,15.2,13.0,56,43,32,29.89,29.75,24,8,0,0.00
2013-4-3,48.0,37.8,29.0,18.0,14.5,10.0,64,40,23,30.10,29.87,22,5,0,0.00
2013-4-4,58.0,43.2,28.0,24.0,19.4,14.0,61,40,26,30.25,29.99,14,2,0,0.00
2013-4-5,63.0,47.8,38.0,36.0,29.3,23.0,72,51,29,29.99,29.62,15,1,0,0.00
2013-4-6,48.0,38.2,30.0,23.0,11.3,4.0,54,34,21,30.32,29.85,20,4,0,0.00
2013-4-7,57.0,44.1,29.0,41.0,26.2,4.0,80,51,29,30.32,29.96,19,4,0,0.00
2013-4-8,68.0,53.0,43.0,46.0,41.8,38.0,99,69,36,30.10,29.92,10,1,0,0.00
2013-4-9,68.0,54.1,45.0,56.0,46.2,39.0,98,77,51,30.09,29.84,11,3,0,0.48
2013-4-10,63.0,53.6,45.0,55.0,49.1,43.0,100,86,70,29.99,29.85,8,3,0,1.19
2013-4-11,55.0,48.1,42.0,47.0,40.2,32.0,94,74,57,30.13,29.98,7,3,0,0.03
2013-4-12,42.0,38.2,36.0,37.0,32.5,28.0,100,80,59,30.20,29.98,18,9,0,1.25
2013-4-13,56.0,48.3,40.0,45.0,42.3,39.0,99,80,61,29.91,29.79,9,4,0,0.00
2013-4-14,56.0,47.3,40.0,44.0,37.5,32.0,98,71,46,30.19,29.91,13,5,0,0.00
2013-4-15,57.0,45.7,33.0,42.0,37.1,31.0,93,73,53,30.37,30.19,22,5,0,0.00
2013-4-16,68.0,53.6,39.0,55.0,45.7,37.0,98,77,52,30.39,30.01,24,10,0,0.00
2013-4-17,68.0,58.8,49.0,56.0,41.2,31.0,94,55,31,30.31,30.01,18,7,0,0.00
2013-4-18,60.0,51.9,40.0,43.0,36.1,27.0,68,55,43,30.43,30.15,27,7,0,0.00
2013-4-19,77.0,65.4,52.0,68.0,60.0,41.0,100,83,66,30.15,29.65,26,11,0,0.00
2013-4-20,60.0,53.8,44.0,55.0,39.8,26.0,100,62,42,30.16,29.62,17,8,0,0.78
2013-4-21,57.0,44.4,33.0,34.0,27.0,21.0,69,51,32,30.67,30.18,12,5,0,0.00
2013-4-22,53.0,42.5,33.0,38.0,32.2,25.0,82,68,44,30.76,30.60,17,7,0,0.00
2013-4-23,39.0,38.2,38.0,38.0,34.6,32.0,99,87,79,30.60,30.49,9,4,0,0.00
2013-4-24,73.0,64.7,53.0,62.0,56.4,51.0,99,75,65,29.90,29.77,20,7,0,0.13
2013-4-25,68.0,57.9,49.0,55.0,41.6,28.0,100,59,32,30.26,29.79,26,7,0,0.70
2013-4-26,60.0,51.0,42.0,45.0,36.9,28.0,86,59,44,30.42,30.26,13,5,0,0.10
2013-4-27,68.0,53.7,39.0,46.0,40.9,36.0,94,65,42,30.41,30.27,14,5,0,0.03
2013-4-28,68.0,55.8,42.0,51.0,42.3,37.0,85,62,40,30.32,30.22,14,5,0,0.00
2013-4-29,72.0,58.5,47.0,57.0,43.3,32.0,84,59,39,30.26,30.17,14,5,0,0.00
2013-4-30,73.0,59.5,46.0,44.0,36.2,27.0,64,43,29,30.37,30.24,10,4,0,0.00
2013-5-1,73.0,58.4,41.0,51.0,38.8,28.0,77,50,33,30.45,30.36,12,4,0,0.00
2013-5-2,79.0,56.0,45.0,55.0,43.0,35.0,80,63,38,30.50,30.35,17,5,0,0.00
2013-5-3,62.0,51.5,40.0,50.0,43.6,38.0,100,76,56,30.52,30.37,13,5,0,0.00
2013-5-4,62.0,51.3,42.0,50.0,43.2,38.0,98,76,49,30.37,30.30,13,5,0,0.12
2013-5-5,65.0,53.4,37.0,50.0,44.1,36.0,100,73,53,30.34,30.24,14,5,0,0.17
2013-5-6,68.0,54.1,39.0,56.0,48.1,38.0,100,82,59,30.28,30.15,11,4,0,0.00
2013-5-7,82.0,65.2,42.0,66.0,56.5,41.0,100,76,53,30.16,30.08,20,5,0,0.15
2013-5-8,76.0,66.7,57.0,69.0,62.5,56.0,100,87,70,30.21,30.10,15,5,0,0.26
2013-5-9,65.0,64.4,63.0,65.0,64.4,63.0,100,100,99,29.91,29.90,4,3,0,0.00
2013-5-10,82.0,69.1,57.0,72.0,59.2,-99.9,98,79,63,29.94,29.89,12,4,0,0.13
2013-5-11,72.0,68.3,57.0,69.0,66.0,57.0,100,92,87,29.90,29.70,18,8,0,0.96
2013-5-12,75.0,63.3,49.0,63.0,48.3,-99.9,98,61,48,29.78,29.54,12,5,0,1.13
2013-5-13,62.0,52.2,43.0,42.0,35.1,31.0,70,53,37,30.01,29.78,18,6,0,0.03
2013-5-14,62.0,51.2,38.0,43.0,35.6,32.0,85,58,37,30.04,29.94,12,3,0,0.18
2013-5-15,70.0,53.6,37.0,56.0,42.8,31.0,99,70,37,30.04,29.66,18,4,0,0.13
2013-5-16,82.0,63.9,54.0,57.0,18.8,-99.9,100,49,32,29.80,29.60,17,7,0,0.01
2013-5-17,70.0,59.5,50.0,49.0,41.3,-99.9,76,59,39,30.19,29.80,13,5,0,0.31
2013-5-20,82.0,75.6,67.0,73.0,68.8,65.0,99,80,69,30.01,29.91,10,3,0,0.74
2013-5-21,68.0,63.0,57.0,66.0,62.3,57.0,100,98,91,29.97,29.92,12,5,0,0.93
2013-5-22,61.0,59.4,55.0,60.0,58.0,55.0,100,95,90,29.95,29.91,8,5,0,0.05
2013-5-23,79.0,74.5,71.0,77.0,73.5,71.0,100,96,92,29.83,29.81,12,8,0,0.54
2013-5-24,76.0,66.0,56.0,76.0,63.1,55.0,100,91,84,29.80,29.69,11,4,0,0.18
2013-5-26,59.0,55.1,47.0,50.0,45.3,41.0,98,70,60,30.04,29.76,14,6,0,0.00
2013-5-27,74.0,59.2,41.0,51.0,44.2,38.0,100,62,35,30.16,30.05,11,4,0,0.15
2013-5-28,77.0,61.9,46.0,54.0,48.4,38.0,92,64,40,30.23,30.16,10,4,0,0.69
2013-5-29,56.0,54.5,54.0,56.0,53.4,52.0,99,96,92,30.17,30.14,3,2,0,0.01
2013-5-30,92.0,84.9,74.0,77.0,73.5,69.0,98,70,54,30.05,29.98,12,4,0,0.00
2013-5-31,99.0,85.9,68.0,79.0,74.1,68.0,100,70,49,30.07,29.91,14,4,0,0.01
2013-6-1,98.0,85.0,71.0,81.0,73.7,69.0,96,72,45,29.95,29.83,14,6,0,0.06
2013-6-2,92.0,81.5,72.0,80.0,72.3,-99.9,100,79,52,29.85,29.69,22,7,0,0.17
2013-6-3,85.0,76.1,62.0,76.0,67.6,52.0,100,76,58,29.81,29.73,11,5,0,0.19
2013-6-4,73.0,63.2,52.0,53.0,49.9,46.0,84,63,46,30.08,29.80,12,4,0,0.12
2013-6-5,82.0,65.0,50.0,60.0,52.2,45.0,94,66,34,30.16,30.08,10,4,0,0.00
2013-6-6,77.0,65.2,56.0,73.0,57.5,53.0,97,77,62,30.18,29.84,12,4,0,0.16
2013-6-7,60.0,57.9,56.0,57.0,56.3,56.0,100,95,86,30.12,30.06,5,2,0,0.26
2013-6-8,81.0,73.1,64.0,72.0,67.0,63.0,99,82,68,29.98,29.72,10,3,0,13.68
2013-6-9,84.0,75.1,62.0,69.0,63.2,57.0,100,68,50,30.15,29.97,9,3,0,0.08
2013-6-10,73.0,65.1,57.0,64.0,60.1,56.0,100,85,70,30.21,30.07,10,3,0,0.13
2013-6-11,62.0,61.1,60.0,62.0,60.7,60.0,100,98,96,29.64,29.59,7,4,0,0.01
2013-6-12,70.0,65.8,61.0,64.0,61.3,59.0,98,86,74,29.80,29.58,16,5,0,0.06
2013-6-13,73.0,65.2,57.0,64.0,61.0,56.0,100,88,68,29.79,29.72,7,2,0,0.35
2013-6-14,82.0,71.9,62.0,65.0,62.0,57.0,99,72,54,29.75,29.67,5,2,0,3.12
2013-6-15,83.0,66.7,54.0,62.0,55.3,50.0,100,71,39,29.91,29.76,9,3,0,0.26
2013-6-16,81.0,67.4,55.0,65.0,57.8,-99.9,93,75,52,29.92,29.70,14,4,0,0.00
2013-6-17,90.0,72.1,60.0,75.0,66.6,60.0,100,84,53,29.89,29.74,33,4,0,0.91
2013-6-18,77.0,68.3,60.0,69.0,64.7,60.0,100,89,71,29.95,29.91,8,3,0,0.35
2013-6-19,81.0,69.7,59.0,63.0,57.4,51.0,100,66,51,30.13,29.95,9,4,0,0.00
2013-6-20,83.0,63.5,52.0,64.0,54.7,49.0,92,75,51,30.24,30.13,7,3,0,0.11
2013-6-22,89.0,81.4,75.0,74.0,69.3,67.0,75,67,57,30.14,30.09,8,4,0,0.04